Всё
Bath Community Hospital Airport (Hot Springs, VA) 47VG Погода
There is no TAF data available at 47VG or any nearby airports.
There is no METAR data available at 47VG. Showing METAR data for KHSP (3 mi Ю).
Недавняя история METAR для HSP (для 47VG данные отсутствуют)
| Date | Time (EDT) | Flight Rules | Wind Dir. | Speed | Type | Height AGL (ft) | Visibility | Temp (°C) | Temp (°F) | Dew Point (°C) | Dew Point (°F) | Rel. Humid. | Pressure | Density Altitude | Remarks |
|---|---|---|---|---|---|---|---|---|---|---|---|---|---|---|---|
| 06-сен | 01:15 | VFR | 280° | 3 kt | 10 miles | 19° | 66° | 17° | 62° | 88% | 30.05 in Hg | 4,855 ft | |||
| 06-сен | 00:55 | VFR | 310° | 3 kt | 10 miles | 18° | 64° | 17° | 62° | 94% | 30.06 in Hg | 4,725 ft | |||
| 06-сен | 00:15 | VFR | 330° | 5 kt | 10 miles | 19° | 66° | 17° | 62° | 89% | 30.06 in Hg | 4,845 ft | |||
| 05-сен | 23:55 | VFR | Calm | 10 miles | 19° | 66° | 16° | 60° | 83% | 30.07 in Hg | 4,835 ft | ||||
| 05-сен | 23:35 | VFR | 270° | 5 kt | 10 miles | 19° | 66° | 16° | 60° | 82% | 30.07 in Hg | 4,835 ft | |||
| 05-сен | 23:15 | VFR | 290° | 5 kt | 10 miles | 19° | 66° | 16° | 60° | 84% | 30.07 in Hg | 4,835 ft | |||
| 05-сен | 22:55 | VFR | 310° | 6 kt | 10 miles | 19° | 66° | 17° | 62° | 85% | 30.07 in Hg | 4,835 ft | |||
| 05-сен | 22:35 | VFR | 300° | 5 kt | 10 miles | 19° | 66° | 17° | 62° | 85% | 30.07 in Hg | 4,835 ft | |||
| 05-сен | 22:15 | VFR | 310° | 7 kt | 10 miles | 19° | 66° | 17° | 62° | 87% | 30.07 in Hg | 4,835 ft | |||
| 05-сен | 21:55 | VFR | 330° | 4 kt | 10 miles | 19° | 66° | 17° | 62° | 85% | 30.07 in Hg | 4,835 ft | |||
| 05-сен | 21:35 | VFR | 300° | 4 kt | 10 miles | 19° | 66° | 17° | 62° | 87% | 30.06 in Hg | 4,845 ft | |||
| 05-сен | 21:15 | VFR | 330° | 3 kt | 10 miles | 20° | 68° | 17° | 62° | 84% | 30.06 in Hg | 4,965 ft | |||
| 05-сен | 20:55 | VFR | 330° | 5 kt | 10 miles | 20° | 68° | 17° | 62° | 81% | 30.05 in Hg | 4,975 ft | |||
| 05-сен | 20:35 | VFR | 300° | 5 kt | 10 miles | 20° | 68° | 17° | 62° | 80% | 30.05 in Hg | 4,975 ft | |||
| 05-сен | 20:15 | VFR | 330° | 4 kt | 10 miles | 21° | 69° | 17° | 62° | 77% | 30.05 in Hg | 5,095 ft | |||
| 05-сен | 19:15 | VFR | 320° | 3 kt | 10 miles | 22° | 71° | 17° | 62° | 72% | 30.05 in Hg | 5,215 ft | |||
| 05-сен | 18:55 | VFR | 310° | 3 kt | 10 miles | 23° | 73° | 17° | 62° | 70% | 30.05 in Hg | 5,335 ft | |||
| 05-сен | 18:35 | VFR | 310° | 4 kt | 10 miles | 23° | 73° | 17° | 62° | 68% | 30.05 in Hg | 5,335 ft | |||
| 05-сен | 18:15 | VFR | 310° | 6 kt | 10 miles | 23° | 73° | 17° | 62° | 66% | 30.04 in Hg | 5,345 ft | |||
| 05-сен | 17:55 | VFR | 320° | 5 kt | 10 miles | 24° | 75° | 16° | 60° | 64% | 30.04 in Hg | 5,465 ft | |||
| 05-сен | 17:35 | VFR | 320° | 3 kt | 10 miles | 24° | 75° | 17° | 62° | 66% | 30.03 in Hg | 5,475 ft | |||
| 05-сен | 17:15 | VFR | 320° | 6 kt | 10 miles | 24° | 75° | 16° | 60° | 63% | 30.03 in Hg | 5,475 ft | |||
| 05-сен | 16:55 | VFR | 320° | 6 kt | 10 miles | 24° | 75° | 17° | 62° | 67% | 30.03 in Hg | 5,475 ft | |||
| 05-сен | 16:35 | VFR | 300° | 8 kt | 10 miles | 24° | 75° | 17° | 62° | 65% | 30.02 in Hg | 5,485 ft |
Вход
| Ваш браузер не поддерживается.. обновите веб-браузер |
